#timestamp,LO_Frequency,Hit,StdDev 
1509602415.6,286047001.3,N
1509602435.4,286047002.0,N
1509602455.2,286047002.2,N
1509602475.1,286047002.4,N
1509602476.0,286047002.4,N
1509602495.8,286047002.4,N
1509602515.7,286047000.8,N
1509602535.5,286047000.7,N
1509602585.3,286046996.5,E
1509602595.3,286046998.2,N
1509602615.1,286047001.6,P
1509602635.8,286047004.1,N
1509602655.7,286047001.3,N
1509602675.5,286047002.9,N
1509602695.4,286047003.0,N
1509602715.2,286047004.6,N
1509602735.0,286047005.5,N
1509602735.9,286047005.5,N
1509602755.8,286047005.1,N
1509602775.6,286047007.6,Y
1509602795.4,286047002.1,P
1509602815.3,286047002.4,P
1509602835.1,286047000.1,N
1509602855.9,286047000.5,N
1509602875.7,286047001.0,N
1509602895.5,286047002.7,N
1509602915.4,286047002.7,N
1509602935.2,286047001.4,N
1509602955.0,286047002.9,N
1509602956.0,286047002.9,N
1509602975.8,286047002.0,N
1509602995.6,286047001.9,N
1509603015.5,286047002.1,N
1509603035.3,286047002.1,N
1509603055.1,286047000.6,N
1509603075.9,286047000.9,N
1509603095.7,286047000.0,N
1509603115.5,286047002.3,N
1509603135.4,286047002.6,N
1509603155.2,286046999.7,N
1509603175.1,286047000.2,N
1509603176.0,286047000.2,N
1509603195.8,286047002.3,N
1509603215.6,286047004.1,Y
1509603235.5,286047002.2,P
1509603255.3,286047004.4,P
1509603275.2,286047003.8,P
1509603295.9,286047004.0,Y
1509603315.7,286046998.6,P
1509603335.6,286047000.8,N
1509603355.4,286047000.2,N
1509603375.2,286046998.5,N
1509603395.1,286047001.1,N
1509603396.0,286047001.1,N
1509603415.8,286046998.4,N
1509603435.7,286046999.4,N
1509603455.5,286046999.1,N
1509603475.3,286046997.4,N
1509603495.2,286046997.0,N
1509603515.0,286046999.0,N
1509603515.9,286046999.0,N
1509603535.7,286046999.3,N
1509603555.6,286046998.5,N
1509603575.4,286047000.8,N
1509603595.3,286046999.3,N
1509603615.1,286046999.1,N
1509603616.0,286046999.1,N
1509603635.8,286046998.9,N
1509603655.7,286046999.1,N
1509603675.5,286047000.8,N
1509603695.3,286047000.7,N
1509603715.2,286047000.5,N
1509603735.0,286046999.9,N
1509603735.9,286046999.9,N
1509603755.8,286047001.5,N
1509603775.6,286047002.6,N
1509603795.4,286047001.6,N
1509603815.3,286046999.8,N
1509603835.1,286047002.7,N
1509603855.8,286046999.9,N
1509603875.7,286046999.8,N
1509603895.5,286047002.1,N
1509603915.4,286047002.0,N
1509603935.2,286047002.4,N
1509603955.0,286047004.2,N
1509603955.9,286047004.2,N
1509603975.8,286047002.3,N
1509603995.6,286047002.6,N
1509604015.4,286047002.1,N
1509604035.3,286047001.3,N
1509604055.1,286047001.6,N
1509604075.9,286047002.5,N
1509604095.7,286047001.6,N
1509604115.5,286047004.1,N
1509604135.4,286047003.6,N
1509604155.2,286047002.5,N
1509604175.1,286047001.8,N
1509604176.0,286047001.8,N
1509604195.8,286047002.0,N
1509604215.6,286047002.7,N
1509604235.5,286047001.0,N
1509604255.3,286046998.5,N
1509604275.2,286047001.1,N
1509604295.9,286047001.0,N
1509604315.7,286046999.3,N
1509604335.6,286046998.8,N
1509604355.4,286046999.3,N
1509604375.2,286046998.8,N
1509604395.1,286047000.9,N
1509604396.0,286047000.9,N
1509604415.8,286047001.1,N
1509604435.7,286046998.2,N
1509604455.5,286046998.3,N
1509604475.3,286046998.6,N
1509604495.2,286046999.6,N
1509604515.0,286046995.3,N
1509604515.9,286046995.3,N
1509604535.8,286046995.9,N
1509604555.6,286046997.1,N
1509604575.4,286047001.1,N
1509604595.3,286047000.5,N
1509604615.1,286047000.5,N
1509604635.8,286046999.9,N
1509604655.7,286047000.0,N
1509604675.5,286046998.5,N
1509604695.4,286046998.1,N
1509604715.2,286046998.3,N
1509604735.0,286047000.4,N
1509604735.9,286047000.4,N
1509604755.8,286047002.3,N
1509604775.6,286047002.5,N
1509604795.5,286047000.1,N
1509604815.3,286047002.4,N
1509604835.1,286047002.0,N
1509604855.9,286047004.4,N
1509604875.7,286047000.2,N
1509604895.5,286047002.2,N
1509604915.4,286047000.1,N
1509604935.2,286046998.5,N
1509604955.0,286046998.2,N
1509604956.0,286046998.2,N
1509604975.8,286047001.1,N
1509604995.6,286047001.2,N
1509605015.5,286047000.4,N
1509605035.3,286046999.0,N
1509605055.1,286047000.7,N
1509605075.9,286046999.8,N
1509605095.7,286047001.1,N
1509605115.6,286047000.6,N
1509605135.4,286047000.0,N
1509605155.2,286047000.1,N
1509605175.1,286047000.0,N
1509605176.0,286047000.0,N
1509605195.8,286047002.3,N
1509605215.6,286046999.7,N
1509605235.5,286047000.4,N
1509605255.3,286047000.6,N
1509605275.2,286046998.1,N
1509605295.9,286047000.4,N
1509605315.7,286047000.6,N
1509605335.6,286046998.2,N
1509605355.4,286046998.5,N
1509605375.2,286046998.2,N
1509605395.1,286047000.8,N
1509605396.0,286047000.8,N
1509605415.8,286047000.3,N
1509605435.7,286047002.4,N
1509605455.5,286047002.7,N
1509605475.3,286047002.0,N
1509605495.2,286047001.7,N
1509605515.9,286047001.7,N
1509605535.7,286047002.2,N
1509605555.6,286047001.4,N
1509605575.4,286047000.0,N
1509605595.2,286047002.2,N
1509605615.1,286047002.8,N
1509605616.0,286047002.8,N
1509605635.8,286047002.5,N
1509605655.7,286047000.9,N
1509605675.5,286047002.6,N
1509605695.3,286047001.9,N
1509605715.2,286047002.5,N
1509605735.0,286047000.3,N
1509605735.9,286047000.3,N
1509605755.8,286046999.8,N
1509605775.6,286047001.7,N
1509605795.4,286047004.2,N
1509605815.3,286047001.8,N
1509605835.1,286047001.8,N
1509605836.0,286047001.8,N
1509605855.8,286046999.8,N
1509605875.7,286046999.9,N
1509605895.5,286047000.5,N
1509605915.3,286046998.2,N
1509605935.2,286047000.5,N
1509605955.0,286046998.3,N
1509605955.9,286046998.3,N
1509605975.8,286046999.0,N
1509605995.6,286046998.9,N
